Time,TemperatureF,DewpointF,PressureIn,WindDirection,WindDirectionDegrees,WindSpeedMPH,WindSpeedGustMPH,Humidity,HourlyPrecipIn,Conditions,Clouds,dailyrainin,SoftwareType,DateUTC
2013-01-13 00:03:00,39.0,37.0,29.89,North,360,1.0,-999.0,92,-99.99,,,-99.99,,2013-01-13 05:03:00,
2013-01-13 00:12:00,39.0,37.0,29.89,North,360,1.0,-999.0,92,-99.99,,,-99.99,,2013-01-13 05:12:00,
2013-01-13 00:22:00,39.0,37.0,29.87,NE,51,1.0,-999.0,92,-99.99,,,-99.99,,2013-01-13 05:22:00,
2013-01-13 00:32:00,39.0,37.0,29.87,North,4,1.0,-999.0,92,-99.99,,,-99.99,,2013-01-13 05:32:00,
2013-01-13 00:42:00,39.0,37.0,29.87,North,4,1.0,-999.0,92,-99.99,,,-99.99,,2013-01-13 05:42:00,
2013-01-13 00:53:00,39.0,37.0,29.86,North,360,2.0,-999.0,92,-99.99,,,-99.99,,2013-01-13 05:53:00,
2013-01-13 01:02:00,38.0,36.0,29.85,North,11,2.0,-999.0,92,-99.99,,,-99.99,,2013-01-13 06:02:00,
2013-01-13 01:12:00,38.0,36.0,29.83,North,8,2.0,-999.0,92,-99.99,,,-99.99,,2013-01-13 06:12:00,
2013-01-13 01:22:00,38.0,36.0,29.83,North,8,2.0,-999.0,92,-99.99,,,-99.99,,2013-01-13 06:22:00,
2013-01-13 01:32:00,38.0,36.0,29.85,NNE,17,1.0,-999.0,92,-99.99,,,-99.99,,2013-01-13 06:32:00,
2013-01-13 01:42:00,38.0,36.0,29.85,NNE,17,1.0,-999.0,92,-99.99,,,-99.99,,2013-01-13 06:42:00,
2013-01-13 01:52:00,37.0,35.0,29.85,NNW,342,1.0,-999.0,93,-99.99,,,-99.99,,2013-01-13 06:52:00,
2013-01-13 02:02:00,37.0,35.0,29.87,NNE,24,1.0,-999.0,92,-99.99,,,-99.99,,2013-01-13 07:02:00,
2013-01-13 02:12:00,37.0,35.0,29.87,NNE,24,1.0,-999.0,92,-99.99,,,-99.99,,2013-01-13 07:12:00,
2013-01-13 02:22:00,37.0,35.0,29.86,North,360,1.0,-999.0,92,-99.99,,,-99.99,,2013-01-13 07:22:00,
2013-01-13 02:32:00,37.0,35.0,29.88,NNE,13,1.0,-999.0,93,-99.99,,,-99.99,,2013-01-13 07:32:00,
2013-01-13 02:42:00,37.0,35.0,29.88,NNE,13,1.0,-999.0,93,-99.99,,,-99.99,,2013-01-13 07:42:00,
2013-01-13 02:52:00,36.0,34.0,29.87,NNW,328,1.0,-999.0,93,-99.99,,,-99.99,,2013-01-13 07:52:00,
2013-01-13 03:02:00,36.0,34.0,29.88,NW,326,2.0,-999.0,93,-99.99,,,-99.99,,2013-01-13 08:02:00,
2013-01-13 03:12:00,36.0,34.0,29.88,NW,326,2.0,-999.0,93,-99.99,,,-99.99,,2013-01-13 08:12:00,
2013-01-13 03:22:00,36.0,34.0,29.89,NNE,17,1.0,-999.0,93,-99.99,,,-99.99,,2013-01-13 08:22:00,
2013-01-13 03:32:00,36.0,34.0,29.89,North,360,1.0,-999.0,93,-99.99,,,-99.99,,2013-01-13 08:32:00,
2013-01-13 03:42:00,36.0,34.0,29.89,North,360,1.0,-999.0,93,-99.99,,,-99.99,,2013-01-13 08:42:00,
2013-01-13 03:53:00,36.0,34.0,29.88,North,7,1.0,-999.0,93,-99.99,,,-99.99,,2013-01-13 08:53:00,
2013-01-13 04:02:00,36.0,34.0,29.88,NNW,339,1.0,-999.0,93,-99.99,,,-99.99,,2013-01-13 09:02:00,
2013-01-13 04:12:00,35.0,33.0,29.87,NNE,16,2.0,-999.0,93,-99.99,,,-99.99,,2013-01-13 09:12:00,
2013-01-13 04:22:00,35.0,33.0,29.87,NNE,16,2.0,-999.0,93,-99.99,,,-99.99,,2013-01-13 09:22:00,
2013-01-13 04:32:00,36.0,34.0,29.88,North,7,1.0,-999.0,93,-99.99,,,-99.99,,2013-01-13 09:32:00,
2013-01-13 04:42:00,36.0,34.0,29.88,North,7,1.0,-999.0,93,-99.99,,,-99.99,,2013-01-13 09:42:00,
2013-01-13 04:52:00,35.0,33.0,29.89,NNW,347,1.0,-999.0,93,-99.99,,,-99.99,,2013-01-13 09:52:00,
2013-01-13 05:02:00,36.0,34.0,29.88,NNW,347,0.0,-999.0,93,-99.99,,,-99.99,,2013-01-13 10:02:00,
2013-01-13 05:12:00,36.0,34.0,29.88,NNW,347,0.0,-999.0,93,-99.99,,,-99.99,,2013-01-13 10:12:00,
2013-01-13 05:22:00,36.0,34.0,29.87,North,6,1.0,-999.0,93,-99.99,,,-99.99,,2013-01-13 10:22:00,
2013-01-13 05:32:00,36.0,34.0,29.86,North,6,0.0,-999.0,93,-99.99,,,-99.99,,2013-01-13 10:32:00,
2013-01-13 05:42:00,36.0,34.0,29.86,North,6,0.0,-999.0,93,-99.99,,,-99.99,,2013-01-13 10:42:00,
2013-01-13 05:52:00,36.0,34.0,29.87,North,6,0.0,-999.0,93,-99.99,,,-99.99,,2013-01-13 10:52:00,
2013-01-13 06:02:00,36.0,34.0,29.86,North,6,0.0,-999.0,93,-99.99,,,-99.99,,2013-01-13 11:02:00,
2013-01-13 06:12:00,36.0,34.0,29.86,North,6,0.0,-999.0,93,-99.99,,,-99.99,,2013-01-13 11:12:00,
2013-01-13 06:22:00,36.0,34.0,29.86,North,6,0.0,-999.0,93,-99.99,,,-99.99,,2013-01-13 11:22:00,
2013-01-13 06:32:00,36.0,34.0,29.87,North,6,0.0,-999.0,94,-99.99,,,-99.99,,2013-01-13 11:32:00,
2013-01-13 06:42:00,36.0,34.0,29.87,North,6,0.0,-999.0,94,-99.99,,,-99.99,,2013-01-13 11:42:00,
2013-01-13 06:53:00,36.0,34.0,29.86,North,6,0.0,-999.0,94,-99.99,,,-99.99,,2013-01-13 11:53:00,
2013-01-13 07:03:00,36.0,34.0,29.88,North,6,0.0,-999.0,94,-99.99,,,-99.99,,2013-01-13 12:03:00,
2013-01-13 07:12:00,36.0,34.0,29.88,North,6,0.0,-999.0,94,-99.99,,,-99.99,,2013-01-13 12:12:00,
2013-01-13 07:22:00,36.0,34.0,29.90,North,6,0.0,-999.0,94,-99.99,,,-99.99,,2013-01-13 12:22:00,
2013-01-13 07:32:00,36.0,34.0,29.92,North,6,1.0,-999.0,94,-99.99,,,-99.99,,2013-01-13 12:32:00,
2013-01-13 07:42:00,36.0,34.0,29.92,North,6,1.0,-999.0,94,-99.99,,,-99.99,,2013-01-13 12:42:00,
2013-01-13 07:53:00,36.0,34.0,29.93,SSW,209,1.0,-999.0,94,-99.99,,,-99.99,,2013-01-13 12:53:00,
2013-01-13 08:02:00,36.0,34.0,29.94,NW,316,1.0,-999.0,94,-99.99,,,-99.99,,2013-01-13 13:02:00,
2013-01-13 08:12:00,36.0,34.0,29.94,NW,316,1.0,-999.0,94,-99.99,,,-99.99,,2013-01-13 13:12:00,
2013-01-13 08:22:00,35.0,33.0,29.93,NW,316,1.0,-999.0,94,-99.99,,,-99.99,,2013-01-13 13:22:00,
2013-01-13 08:32:00,35.0,34.0,29.94,NW,316,0.0,-999.0,95,-99.99,,,-99.99,,2013-01-13 13:32:00,
2013-01-13 08:42:00,35.0,34.0,29.94,NW,316,0.0,-999.0,95,-99.99,,,-99.99,,2013-01-13 13:42:00,
2013-01-13 08:53:00,35.0,34.0,29.93,NW,316,0.0,-999.0,95,-99.99,,,-99.99,,2013-01-13 13:53:00,
2013-01-13 09:02:00,36.0,35.0,29.94,South,176,1.0,-999.0,95,-99.99,,,-99.99,,2013-01-13 14:02:00,
2013-01-13 09:12:00,36.0,35.0,29.94,South,176,1.0,-999.0,95,-99.99,,,-99.99,,2013-01-13 14:12:00,
2013-01-13 09:22:00,36.0,35.0,29.95,South,176,0.0,-999.0,95,-99.99,,,-99.99,,2013-01-13 14:22:00,
2013-01-13 09:33:00,36.0,35.0,29.96,South,176,0.0,-999.0,95,-99.99,,,-99.99,,2013-01-13 14:33:00,
2013-01-13 09:43:00,36.0,35.0,29.96,South,176,0.0,-999.0,95,-99.99,,,-99.99,,2013-01-13 14:43:00,
2013-01-13 09:53:00,36.0,35.0,29.96,South,176,0.0,-999.0,95,-99.99,,,-99.99,,2013-01-13 14:53:00,
2013-01-13 10:03:00,36.0,35.0,29.96,South,176,0.0,-999.0,96,-99.99,,,-99.99,,2013-01-13 15:03:00,
2013-01-13 10:12:00,36.0,35.0,29.96,South,176,0.0,-999.0,96,-99.99,,,-99.99,,2013-01-13 15:12:00,
2013-01-13 10:22:00,36.0,35.0,29.96,South,176,1.0,-999.0,96,-99.99,,,-99.99,,2013-01-13 15:22:00,
2013-01-13 10:33:00,37.0,36.0,29.98,South,176,0.0,-999.0,96,-99.99,,,-99.99,,2013-01-13 15:33:00,
2013-01-13 10:43:00,37.0,36.0,29.98,South,176,0.0,-999.0,96,-99.99,,,-99.99,,2013-01-13 15:43:00,
2013-01-13 10:53:00,37.0,36.0,29.96,South,176,0.0,-999.0,96,-99.99,,,-99.99,,2013-01-13 15:53:00,
2013-01-13 11:03:00,37.0,36.0,29.97,North,360,0.0,-999.0,96,-99.99,,,-99.99,,2013-01-13 16:03:00,
2013-01-13 11:12:00,37.0,36.0,29.97,North,360,0.0,-999.0,96,-99.99,,,-99.99,,2013-01-13 16:12:00,
2013-01-13 11:22:00,37.0,36.0,29.92,NNE,31,1.0,-999.0,96,-99.99,,,-99.99,,2013-01-13 16:22:00,
2013-01-13 11:33:00,36.0,35.0,29.96,WSW,257,2.0,-999.0,96,-99.99,,,-99.99,,2013-01-13 16:33:00,
2013-01-13 11:42:00,36.0,35.0,29.96,WSW,257,2.0,-999.0,96,-99.99,,,-99.99,,2013-01-13 16:42:00,
2013-01-13 11:53:00,35.0,34.0,29.99,WNW,285,1.0,-999.0,95,-99.99,,,-99.99,,2013-01-13 16:53:00,
2013-01-13 12:03:00,35.0,34.0,30.01,NW,322,1.0,-999.0,95,-99.99,,,-99.99,,2013-01-13 17:03:00,
2013-01-13 12:12:00,35.0,34.0,30.01,NW,322,1.0,-999.0,95,-99.99,,,-99.99,,2013-01-13 17:12:00,
2013-01-13 12:22:00,35.0,34.0,29.98,North,1,1.0,-999.0,96,-99.99,,,-99.99,,2013-01-13 17:22:00,
2013-01-13 12:33:00,34.0,33.0,29.97,NNW,343,1.0,-999.0,96,-99.99,,,-99.99,,2013-01-13 17:33:00,
2013-01-13 12:42:00,34.0,33.0,29.97,NNW,343,1.0,-999.0,96,-99.99,,,-99.99,,2013-01-13 17:42:00,
2013-01-13 12:53:00,34.0,33.0,29.95,North,359,1.0,-999.0,96,-99.99,,,-99.99,,2013-01-13 17:53:00,
2013-01-13 13:03:00,34.0,33.0,29.94,NNE,14,1.0,-999.0,95,-99.99,,,-99.99,,2013-01-13 18:03:00,
2013-01-13 13:12:00,34.0,33.0,29.94,NNE,14,1.0,-999.0,95,-99.99,,,-99.99,,2013-01-13 18:12:00,
2013-01-13 13:23:00,34.0,33.0,29.94,NNE,14,1.0,-999.0,95,-99.99,,,-99.99,,2013-01-13 18:23:00,
2013-01-13 13:33:00,32.0,31.0,29.93,NNW,347,2.0,-999.0,95,-99.99,,,-99.99,,2013-01-13 18:33:00,
2013-01-13 13:42:00,32.0,31.0,29.93,NNW,347,2.0,-999.0,95,-99.99,,,-99.99,,2013-01-13 18:42:00,
2013-01-13 13:53:00,33.0,32.0,29.94,North,360,1.0,-999.0,95,-99.99,,,-99.99,,2013-01-13 18:53:00,
2013-01-13 14:02:00,33.0,32.0,29.95,WSW,248,1.0,-999.0,95,-99.99,,,-99.99,,2013-01-13 19:02:00,
2013-01-13 14:12:00,33.0,32.0,29.95,WSW,248,1.0,-999.0,95,-99.99,,,-99.99,,2013-01-13 19:12:00,
2013-01-13 14:22:00,32.0,31.0,29.97,NNW,330,2.0,-999.0,95,-99.99,,,-99.99,,2013-01-13 19:22:00,
2013-01-13 14:33:00,32.0,31.0,29.95,NNW,333,2.0,-999.0,95,-99.99,,,-99.99,,2013-01-13 19:33:00,
2013-01-13 14:42:00,32.0,31.0,29.95,NNW,333,2.0,-999.0,95,-99.99,,,-99.99,,2013-01-13 19:42:00,
2013-01-13 14:53:00,32.0,31.0,29.97,NNW,342,1.0,-999.0,95,-99.99,,,-99.99,,2013-01-13 19:53:00,
2013-01-13 15:02:00,32.0,31.0,29.98,North,350,1.0,-999.0,95,-99.99,,,-99.99,,2013-01-13 20:02:00,
2013-01-13 15:12:00,32.0,31.0,29.98,North,350,1.0,-999.0,95,-99.99,,,-99.99,,2013-01-13 20:12:00,
2013-01-13 15:22:00,32.0,31.0,29.98,North,352,1.0,-999.0,95,-99.99,,,-99.99,,2013-01-13 20:22:00,
2013-01-13 15:32:00,31.0,30.0,29.99,North,350,1.0,-999.0,95,-99.99,,,-99.99,,2013-01-13 20:32:00,
2013-01-13 15:43:00,31.0,30.0,29.99,North,350,1.0,-999.0,95,-99.99,,,-99.99,,2013-01-13 20:43:00,
2013-01-13 15:53:00,31.0,30.0,29.97,North,349,0.0,-999.0,95,-99.99,,,-99.99,,2013-01-13 20:53:00,
2013-01-13 16:03:00,31.0,29.0,29.99,NNW,339,1.0,-999.0,94,-99.99,,,-99.99,,2013-01-13 21:03:00,
2013-01-13 16:12:00,31.0,29.0,29.99,NNW,339,1.0,-999.0,94,-99.99,,,-99.99,,2013-01-13 21:12:00,
2013-01-13 16:23:00,31.0,29.0,30.00,NNW,344,1.0,-999.0,94,-99.99,,,-99.99,,2013-01-13 21:23:00,
2013-01-13 16:33:00,31.0,29.0,29.98,NNW,344,0.0,-999.0,94,-99.99,,,-99.99,,2013-01-13 21:33:00,
2013-01-13 16:43:00,31.0,29.0,29.98,NNW,344,0.0,-999.0,94,-99.99,,,-99.99,,2013-01-13 21:43:00,
2013-01-13 16:53:00,31.0,29.0,29.99,NNW,344,0.0,-999.0,94,-99.99,,,-99.99,,2013-01-13 21:53:00,
2013-01-13 17:02:00,31.0,29.0,30.00,NNW,344,1.0,-999.0,94,-99.99,,,-99.99,,2013-01-13 22:02:00,
2013-01-13 17:12:00,31.0,29.0,30.00,NNW,344,1.0,-999.0,94,-99.99,,,-99.99,,2013-01-13 22:12:00,
2013-01-13 17:22:00,31.0,29.0,30.00,NNW,344,0.0,-999.0,94,-99.99,,,-99.99,,2013-01-13 22:22:00,
2013-01-13 17:33:00,31.0,29.0,30.00,NNW,344,0.0,-999.0,94,-99.99,,,-99.99,,2013-01-13 22:33:00,
2013-01-13 17:43:00,31.0,29.0,30.00,NNW,344,0.0,-999.0,94,-99.99,,,-99.99,,2013-01-13 22:43:00,
2013-01-13 17:52:00,30.0,28.0,30.01,NW,322,1.0,-999.0,94,-99.99,,,-99.99,,2013-01-13 22:52:00,
2013-01-13 18:02:00,30.0,28.0,30.02,West,275,1.0,-999.0,94,-99.99,,,-99.99,,2013-01-13 23:02:00,
2013-01-13 18:12:00,30.0,28.0,30.02,West,275,1.0,-999.0,94,-99.99,,,-99.99,,2013-01-13 23:12:00,
2013-01-13 18:22:00,30.0,28.0,30.03,West,275,1.0,-999.0,94,-99.99,,,-99.99,,2013-01-13 23:22:00,
2013-01-13 18:33:00,30.0,28.0,30.04,WSW,246,2.0,-999.0,94,-99.99,,,-99.99,,2013-01-13 23:33:00,
2013-01-13 18:42:00,30.0,28.0,30.04,WSW,246,2.0,-999.0,94,-99.99,,,-99.99,,2013-01-13 23:42:00,
2013-01-13 18:53:00,30.0,28.0,30.06,WSW,241,1.0,-999.0,93,-99.99,,,-99.99,,2013-01-13 23:53:00,
2013-01-13 19:02:00,30.0,28.0,30.06,WSW,241,2.0,-999.0,93,-99.99,,,-99.99,,2013-01-14 00:02:00,
2013-01-13 19:12:00,30.0,28.0,30.06,WSW,241,2.0,-999.0,93,-99.99,,,-99.99,,2013-01-14 00:12:00,
2013-01-13 19:22:00,29.0,27.0,30.06,WSW,256,2.0,-999.0,93,-99.99,,,-99.99,,2013-01-14 00:22:00,
2013-01-13 19:33:00,29.0,27.0,30.07,WSW,256,2.0,-999.0,92,-99.99,,,-99.99,,2013-01-14 00:33:00,
2013-01-13 19:43:00,29.0,27.0,30.07,WSW,256,2.0,-999.0,92,-99.99,,,-99.99,,2013-01-14 00:43:00,
2013-01-13 19:53:00,29.0,27.0,30.07,WNW,284,3.0,-999.0,92,-99.99,,,-99.99,,2013-01-14 00:53:00,
2013-01-13 20:03:00,28.0,26.0,30.08,West,278,3.0,-999.0,91,-99.99,,,-99.99,,2013-01-14 01:03:00,
2013-01-13 20:12:00,28.0,26.0,30.08,West,278,3.0,-999.0,91,-99.99,,,-99.99,,2013-01-14 01:12:00,
2013-01-13 20:22:00,28.0,25.0,30.09,SW,224,4.0,-999.0,90,-99.99,,,-99.99,,2013-01-14 01:22:00,
2013-01-13 20:32:00,27.0,24.0,30.09,WSW,257,3.0,-999.0,89,-99.99,,,-99.99,,2013-01-14 01:32:00,
2013-01-13 20:42:00,27.0,24.0,30.09,WSW,257,3.0,-999.0,89,-99.99,,,-99.99,,2013-01-14 01:42:00,
2013-01-13 20:52:00,27.0,24.0,30.10,WSW,254,3.0,-999.0,88,-99.99,,,-99.99,,2013-01-14 01:52:00,
2013-01-13 21:02:00,26.0,23.0,30.10,West,260,4.0,-999.0,87,-99.99,,,-99.99,,2013-01-14 02:02:00,
2013-01-13 21:12:00,26.0,22.0,30.11,West,263,5.0,-999.0,86,-99.99,,,-99.99,,2013-01-14 02:12:00,
2013-01-13 21:22:00,26.0,22.0,30.11,West,263,5.0,-999.0,86,-99.99,,,-99.99,,2013-01-14 02:22:00,
2013-01-13 21:32:00,25.0,21.0,30.12,SW,232,5.0,-999.0,84,-99.99,,,-99.99,,2013-01-14 02:32:00,
2013-01-13 21:42:00,25.0,21.0,30.12,SW,232,5.0,-999.0,84,-99.99,,,-99.99,,2013-01-14 02:42:00,
2013-01-13 21:53:00,25.0,21.0,30.12,WSW,237,3.0,-999.0,84,-99.99,,,-99.99,,2013-01-14 02:53:00,
2013-01-13 22:02:00,24.0,20.0,30.13,West,278,4.0,-999.0,83,-99.99,,,-99.99,,2013-01-14 03:02:00,
2013-01-13 22:12:00,24.0,20.0,30.13,West,278,4.0,-999.0,83,-99.99,,,-99.99,,2013-01-14 03:12:00,
2013-01-13 22:22:00,24.0,19.0,30.14,West,267,3.0,-999.0,82,-99.99,,,-99.99,,2013-01-14 03:22:00,
2013-01-13 22:32:00,24.0,19.0,30.15,West,260,3.0,-999.0,81,-99.99,,,-99.99,,2013-01-14 03:32:00,
2013-01-13 22:42:00,24.0,19.0,30.15,West,260,3.0,-999.0,81,-99.99,,,-99.99,,2013-01-14 03:42:00,
2013-01-13 22:53:00,23.0,18.0,30.15,West,271,3.0,-999.0,81,-99.99,,,-99.99,,2013-01-14 03:53:00,
2013-01-13 23:02:00,23.0,18.0,30.16,West,277,2.0,-999.0,81,-99.99,,,-99.99,,2013-01-14 04:02:00,
2013-01-13 23:12:00,23.0,18.0,30.16,West,277,2.0,-999.0,81,-99.99,,,-99.99,,2013-01-14 04:12:00,
2013-01-13 23:22:00,24.0,19.0,30.16,NW,308,1.0,-999.0,82,-99.99,,,-99.99,,2013-01-14 04:22:00,
2013-01-13 23:32:00,23.0,18.0,30.17,West,267,3.0,-999.0,82,-99.99,,,-99.99,,2013-01-14 04:32:00,
2013-01-13 23:42:00,23.0,18.0,30.17,West,267,3.0,-999.0,82,-99.99,,,-99.99,,2013-01-14 04:42:00,
2013-01-13 23:52:00,23.0,18.0,30.18,WSW,254,4.0,-999.0,81,-99.99,,,-99.99,,2013-01-14 04:52:00,